Pensacola NAS, FL

8:31 PM CDT on October 21, 2017 (GMT -0500)
Pensacola Naval Air Station

Weather History for KNPA - December, 2013

Change the Weather History Date:

Sunday, December 29, 2013

  Actual Average Record
Temperature  
Mean Temperature 50 °F -  
Max Temperature 59 °F 58 °F 72 °F (2016)
Min Temperature 41 °F 39 °F 30 °F (2010)
Degree Days  
Heating Degree Days 15    
Moisture  
Dew Point 46 °F    
Average Humidity 90    
Maximum Humidity 100    
Minimum Humidity 69    
Precipitation  
Precipitation 0.00 in - - ()
Sea Level Pressure  
Sea Level Pressure 30.03 in    
Wind  
Wind Speed 7 mph (NNW)    
Max Wind Speed 14 mph    
Max Gust Speed -    
Visibility 9 miles    
Events Rain    
Averages and records for this station are not official NWS values.
T = Trace of Precipitation, MM = Missing Value Source: NWS Daily Summary

Daily Weather History Graph

Daily Weather History Graph

Search for Another Location

Airport or City:

Trip Planner

Search our weather history database for the weather conditions in past years. The results will help you decide how hot, cold, wet, or windy it might be!

Date:

Astronomy

Dec. 29, 2013 Rise Set
Actual Time 6:45 AM CST 4:57 PM CST
Civil Twilight 6:18 AM CST 5:24 PM CST
Nautical Twilight 5:48 AM CST 5:54 PM CST
Astronomical Twilight 5:19 AM CST 6:23 PM CST
Moon 3:34 AM CST (12/29) 2:30 PM CST (12/29)
Length of Visible Light 11h 05m
Length of Day
10h 12m
Waning Crescent, 11% of the Moon is Illuminated
Dec 29
Waning Crescent
Jan 1
New
Jan 7
First Quarter
Jan 15
Full
Jan 23
Last Quarter

Hourly Weather History & Observations

Time (CST) Temp. Windchill Dew Point Humidity Pressure Visibility Wind Dir Wind Speed Gust Speed Precip Events Conditions
12:56 AM 46.9 °F - 46.9 °F 100% 29.94 in 10.0 mi NW 8.1 mph - N/A   Overcast
1:56 AM 46.9 °F - 46.9 °F 100% 29.91 in 10.0 mi North 5.8 mph - N/A   Overcast
2:56 AM 46.9 °F - 46.9 °F 100% 29.93 in 10.0 mi NW 6.9 mph - N/A   Unknown
3:05 AM 46.9 °F - 46.9 °F 100% 29.95 in 10.0 mi NW 6.9 mph - N/A   Overcast
3:23 AM 46.9 °F - 46.0 °F 97% 29.96 in 10.0 mi Variable 5.8 mph - N/A   Overcast
3:56 AM 46.9 °F - 46.0 °F 97% 29.94 in 10.0 mi NW 6.9 mph - 0.00 in Rain Light Rain
4:35 AM 46.9 °F - 46.0 °F 97% 29.95 in 10.0 mi WNW 3.5 mph - 0.00 in   Scattered Clouds
4:56 AM 46.9 °F - 46.0 °F 97% 29.97 in 10.0 mi WNW 4.6 mph - 0.00 in   Scattered Clouds
5:04 AM 46.9 °F - 46.0 °F 97% 29.96 in 10.0 mi NNW 3.5 mph - N/A   Mostly Cloudy
5:56 AM 46.9 °F - 46.0 °F 97% 29.99 in 10.0 mi NW 4.6 mph - N/A   Overcast
6:56 AM 46.9 °F - 46.0 °F 97% 30.01 in 9.0 mi NW 4.6 mph - N/A   Overcast
7:56 AM 48.9 °F - 46.9 °F 93% 30.04 in 10.0 mi NNW 10.4 mph - N/A   Overcast
8:56 AM 50.0 °F - 46.9 °F 89% 30.06 in 10.0 mi NNW 9.2 mph - N/A   Overcast
9:56 AM 51.1 °F - 48.9 °F 92% 30.08 in 10.0 mi NNW 10.4 mph - N/A   Overcast
10:31 AM 53.1 °F - 48.9 °F 86% 30.06 in 10.0 mi NNW 9.2 mph - N/A   Overcast
10:56 AM 54.0 °F - 48.9 °F 83% 30.06 in 10.0 mi NNW 12.7 mph - N/A   Overcast
11:56 AM 57.0 °F - 48.9 °F 74% 30.04 in 10.0 mi NNW 13.8 mph - N/A   Overcast
12:56 PM 57.0 °F - 48.9 °F 74% 30.02 in 10.0 mi North 9.2 mph - N/A   Overcast
1:27 PM 57.9 °F - 48.9 °F 72% 30.00 in 10.0 mi North 8.1 mph - N/A   Mostly Cloudy
1:49 PM 59.0 °F - 48.9 °F 69% 30.01 in 10.0 mi NNE 6.9 mph - N/A   Mostly Cloudy
1:56 PM 59.0 °F - 48.9 °F 69% 30.01 in 10.0 mi North 8.1 mph - N/A   Mostly Cloudy
2:56 PM 59.0 °F - 48.9 °F 69% 30.01 in 10.0 mi NNE 6.9 mph - N/A   Mostly Cloudy
3:19 PM 57.0 °F - 48.9 °F 74% 30.01 in 10.0 mi NNW 9.2 mph - N/A   Mostly Cloudy
3:41 PM 57.0 °F - 48.0 °F 72% 30.03 in 10.0 mi NNW 8.1 mph - N/A   Mostly Cloudy
3:56 PM 55.0 °F - 48.0 °F 77% 30.04 in 10.0 mi NNW 6.9 mph - N/A   Mostly Cloudy
4:56 PM 52.0 °F - 46.9 °F 83% 30.06 in 10.0 mi NW 5.8 mph - N/A   Mostly Cloudy
5:29 PM 50.0 °F - 46.9 °F 89% 30.06 in 10.0 mi NW 3.5 mph - N/A   Mostly Cloudy
5:56 PM 48.0 °F - 46.0 °F 93% 30.07 in 10.0 mi NNW 5.8 mph - N/A   Clear
6:56 PM 46.9 °F - 45.0 °F 93% 30.08 in 10.0 mi NW 3.5 mph - N/A   Clear
7:56 PM 44.1 °F 41.5 °F 44.1 °F 100% 30.09 in 10.0 mi NNW 4.6 mph - N/A   Clear
8:56 PM 46.0 °F 43.1 °F 45.0 °F 96% 30.10 in 10.0 mi NNW 5.8 mph - 0.00 in   Clear
9:56 PM 45.0 °F 41.8 °F 45.0 °F 100% 30.11 in 10.0 mi North 5.8 mph - N/A   Clear
10:56 PM 45.0 °F - 44.1 °F 97% 30.12 in 10.0 mi Calm Calm - N/A   Clear
11:41 PM 42.1 °F - 42.1 °F 100% 30.12 in 1.8 mi Calm Calm - N/A   Clear
11:43 PM 41.0 °F - 41.0 °F 100% 30.12 in 1.0 mi Calm Calm - N/A   Mist
11:52 PM 42.8 °F - 41.0 °F 93% 30.12 in 3.0 mi Calm Calm - N/A   Partly Cloudy
11:56 PM 42.1 °F - 41.0 °F 96% 30.13 in 10.0 mi Calm Calm - 0.00 in Rain Light Rain